Location: Andrest
(43.3200°N, 0.0641°E)
Time: 13:39:47
(UTC+00:00)

Okean-O - Pass Details

Date: 01 December 2020
Orbit: 639 x 640 km, 98.2° (Epoch: 25 January)

Event Time Altitude Azimuth Distance (km) Brightness Sun altitude
Rises 17:57:00 0° 145° (SE) 2,932 5.8 -16.3°
Reaches altitude 10° 17:59:18 10° 138° (SE) 2,027 4.9 -16.7°
Maximum altitude 18:03:24 38° 70° (ENE) 976 3.0 -17.4°
Drops below altitude 10° 18:07:31 10° 2° (N) 2,042 5.1 -18.1°
Sets 18:09:50 0° 355° (N) 2,956 6.0 -18.5°
